FW7449 Weather Reports


time (UTC)temp
F
wind
direction
speed
knots
gust
knots
rain 1hr
in
rain 24hr
in
rain mn
in
humidity
%
barometer
mb
20260505170039 77 191 3.5 10.4 0.00 0.00 0.00 36 1016.1
20260505164539 76 243 5.2 12.2 0.00 0.00 0.00 37 1016.3
20260505163033 75 159 4.3 12.2 0.00 0.00 0.00 41 1016.2
20260505161541 75 244 4.3 14.8 0.00 0.00 0.00 39 1016.4
20260505153040 76 172 4.3 10.4 0.00 0.00 0.00 38 1016.7
20260505151536 77 247 0.9 4.3 0.00 0.00 0.00 41 1016.7
20260505124542 60 314 1.7 3.5 0.00 0.00 0.00 62 1016.6
20260505123053 58 0 0.0 3.5 0.00 0.00 0.00 67 1016.5
20260505121612 57 187 0.0 2.6 0.00 0.00 0.00 70 1016.3
20260505120040 56 0 0.0 0.0 0.00 0.00 0.00 72 1016.3
20260505114541 54 0 0.0 0.0 0.00 0.00 0.00 75 1016.2
20260505113044 52 0 0.0 2.6 0.00 0.00 0.00 76 1016.0
20260505111547 53 187 0.0 2.6 0.00 0.00 0.00 73 1015.9
20260505101543 56 165 0.0 1.7 0.00 0.00 0.00 66 1015.8
20260505094543 56 0 0.0 4.3 0.00 0.00 0.00 66 1015.6
20260505093041 56 161 1.7 5.2 0.00 0.00 0.00 66 1015.6
20260505091557 56 195 0.0 2.6 0.00 0.00 0.00 66 1015.6
20260505090046 56 197 4.3 7.8 0.00 0.00 0.00 65 1015.4
20260505084545 56 250 1.7 4.3 0.00 0.00 0.00 66 1015.3
20260505083049 59 11 2.6 4.3 0.00 0.00 0.00 60 1014.9
20260505081545 60 180 0.9 5.2 0.00 0.00 0.00 57 1014.8
20260505080048 61 168 1.7 4.3 0.00 0.00 0.00 55 1014.6
20260505074542 62 0 0.0 3.5 0.00 0.00 0.00 53 1014.7
20260505073045 63 228 0.0 3.5 0.00 0.00 0.00 51 1014.5
20260505071545 63 233 0.9 3.5 0.00 0.00 0.00 50 1014.4
20260505070044 64 246 2.6 6.1 0.00 0.00 0.00 48 1014.5
20260505064540 65 215 1.7 8.7 0.00 0.00 0.00 47 1014.4
20260505063047 65 223 2.6 9.6 0.00 0.00 0.00 47 1014.6
20260505061541 64 240 3.5 10.4 0.00 0.00 0.00 48 1014.9
20260505060034 64 194 4.3 10.4 0.00 0.00 0.00 48 1014.9
20260505054613 65 171 2.6 10.4 0.00 0.00 0.00 48 1014.8
20260505053047 65 153 4.3 13.0 0.00 0.00 0.00 47 1014.8
20260505051543 65 242 4.3 8.7 0.00 0.00 0.00 47 1014.8
20260505041549 66 167 2.6 6.1 0.00 0.00 0.00 45 1014.9
20260505040044 67 192 1.7 7.0 0.00 0.00 0.00 44 1015.0
20260505034539 67 202 2.6 6.1 0.00 0.00 0.00 44 1015.0
20260505033041 67 209 3.5 9.6 0.00 0.00 0.00 43 1015.1
20260505031538 67 252 3.5 8.7 0.00 0.00 0.00 43 1015.2
20260505030054 67 172 3.5 9.6 0.00 0.00 0.00 43 1015.2
20260505024539 67 174 2.6 8.7 0.00 0.00 0.00 44 1015.2
20260505023038 67 229 3.5 8.7 0.00 0.00 0.00 44 1015.2
20260505021540 67 234 2.6 7.0 0.00 0.00 0.00 44 1015.0
20260505020051 68 0 1.7 4.3 0.00 0.00 0.00 43 1015.1
20260505014540 69 200 1.7 7.8 0.00 0.00 0.00 42 1015.0
20260505013041 69 172 4.3 10.4 0.00 0.00 0.00 41 1014.6
20260505011536 69 181 5.2 12.2 0.00 0.00 0.00 40 1014.7
20260505004539 70 199 4.3 9.6 0.00 0.00 0.00 38 1014.4
20260505003047 70 200 2.6 9.6 0.00 0.00 0.00 38 1014.2
20260505001541 71 165 3.5 6.1 0.00 0.00 0.00 37 1014.1
20260505000043 71 182 1.7 7.8 0.00 0.00 0.00 37 1014.1
20260504234535 72 162 3.5 7.8 0.00 0.00 0.00 36 1014.0
20260504233049 73 165 5.2 12.2 0.00 0.00 0.00 36 1013.8
20260504231540 74 240 7.0 16.5 0.00 0.00 0.00 35 1013.9
20260504230055 74 165 4.3 10.4 0.00 0.00 0.00 36 1013.7
20260504224557 75 154 4.3 12.2 0.00 0.00 0.00 35 1013.8
20260504223042 75 180 6.1 10.4 0.00 0.00 0.00 35 1013.7
20260504221541 76 105 5.2 13.9 0.00 0.00 0.00 35 1013.7
20260504220051 76 153 4.3 13.9 0.00 0.00 0.00 33 1013.6
20260504214545 77 157 5.2 13.0 0.00 0.00 0.00 34 1013.7
20260504213045 77 217 5.2 13.0 0.00 0.00 0.00 32 1013.8
20260504211536 77 191 3.5 12.2 0.00 0.00 0.00 32 1013.7
20260504210056 77 165 5.2 11.3 0.00 0.00 0.00 32 1013.7
20260504204547 77 147 5.2 13.9 0.00 0.00 0.00 33 1013.9
20260504203044 78 148 4.3 12.2 0.00 0.00 0.00 32 1013.9
20260504201546 78 144 4.3 15.6 0.00 0.00 0.00 33 1014.2
20260504200049 78 136 7.0 13.9 0.00 0.00 0.00 33 1014.2
20260504194535 78 169 5.2 10.4 0.00 0.00 0.00 32 1014.4
20260504193044 79 182 2.6 9.6 0.00 0.00 0.00 33 1014.5
20260504191545 78 62 2.6 9.6 0.00 0.00 0.00 34 1014.6
20260504190041 79 173 0.9 7.0 0.00 0.00 0.00 32 1014.9
20260504184539 77 252 4.3 8.7 0.00 0.00 0.00 33 1015.1
20260504183041 79 153 3.5 8.7 0.00 0.00 0.00 31 1015.3
20260504181541 78 243 3.5 11.3 0.00 0.00 0.00 31 1015.6
20260504180040 78 204 1.7 7.8 0.00 0.00 0.00 32 1015.8
20260504174540 76 315 0.9 7.0 0.00 0.00 0.00 33 1015.8
20260504173041 77 157 3.5 7.8 0.00 0.00 0.00 33 1015.8
20260504171540 75 56 0.9 8.7 0.00 0.00 0.00 35 1015.9